This is the latest recevied weather packets stored in our database for station/object OK2ILA-10. If no packets are shown the sender has not sent any weather packets the latest 10 day(s).
| Time | Temp. | Humidity | Pressure | Rain* | Wind** | Luminosity | Snow |
|---|---|---|---|---|---|---|---|
| 1777480567 | 6.67° C | 41% | 1026.8 hPa | - | - | - | - |
| 1777479972 | 7.78° C | 41% | 1026.7 hPa | - | - | - | - |
| 1777479967 | 7.78° C | 41% | 1026.7 hPa | - | - | - | - |
| 1777479372 | 7.78° C | 40% | 1026.6 hPa | - | - | - | - |
| 1777479367 | 7.78° C | 40% | 1026.6 hPa | - | - | - | - |
| 1777478772 | 7.78° C | 40% | 1026.5 hPa | - | - | - | - |
| 1777478766 | 7.78° C | 40% | 1026.5 hPa | - | - | - | - |
| 1777478172 | 7.22° C | 40% | 1026.5 hPa | - | - | - | - |
| 1777478166 | 7.22° C | 40% | 1026.5 hPa | - | - | - | - |
| 1777477573 | 8.33° C | 39% | 1026.7 hPa | - | - | - | - |
| 1777477566 | 8.33° C | 39% | 1026.7 hPa | - | - | - | - |
| 1777476972 | 8.89° C | 39% | 1026.3 hPa | - | - | - | - |
| 1777476966 | 8.89° C | 39% | 1026.3 hPa | - | - | - | - |
| 1777476372 | 8.89° C | 38% | 1026.3 hPa | - | - | - | - |
| 1777476366 | 8.89° C | 38% | 1026.3 hPa | - | - | - | - |
| 1777475772 | 8.89° C | 38% | 1026.3 hPa | - | - | - | - |
| 1777475765 | 8.89° C | 38% | 1026.3 hPa | - | - | - | - |
| 1777475164 | 7.78° C | 37% | 1026.3 hPa | - | - | - | - |
| 1777474572 | 8.33° C | 37% | 1026.2 hPa | - | - | - | - |
| 1777474564 | 8.33° C | 37% | 1026.2 hPa | - | - | - | - |
| 1777473972 | 8.33° C | 37% | 1026.3 hPa | - | - | - | - |
| 1777473964 | 8.33° C | 37% | 1026.3 hPa | - | - | - | - |
| 1777473368 | 9.44° C | 36% | 1026.2 hPa | - | - | - | - |
| 1777473364 | 9.44° C | 36% | 1026.2 hPa | - | - | - | - |
| 1777472773 | 9.44° C | 37% | 1026.2 hPa | - | - | - | - |
* Rain since midnight (hover to see other rain measurements)
** Current wind speed in m/s (hover to see current wind gust speed)